AFL3110 URMM-URSS

Flight info

Callsign AFL3110
Flight time N/A
Altitude 26000
Route URMM ABELA5L ABELA B967 ERSAR G487 BINOL BINOL1K URSS
Aircraft B77W/H-SDE1E2E3FGHIJ2J3J4J5M1RWXY/LB1D1

Departure

Time 2026-04-26 11:55
Airport Mineralnye Vody Airport (URMM)

Arrival

Time N/A
Airport Sochi International Airport (URSS)
Time Latitude Longitude Altitude Speed Heading
2026-04-26 11:10 44.21682 43.09206 1083 ft 0 kts 212°
2026-04-26 11:40 44.21685 43.09208 1055 ft 4 kts 212°
2026-04-26 11:40 44.21695 43.09218 1056 ft 3 kts 224°
2026-04-26 11:40 44.21710 43.09239 1057 ft 3 kts 233°
2026-04-26 11:40 44.21717 43.09255 1057 ft 3 kts 243°
2026-04-26 11:41 44.21727 43.09293 1058 ft 4 kts 258°
2026-04-26 11:42 44.21745 43.09361 1059 ft 0 kts 216°
2026-04-26 11:46 44.21741 43.09357 1059 ft 2 kts 216°
2026-04-26 11:46 44.21724 43.09300 1058 ft 10 kts 271°
2026-04-26 11:47 44.21754 43.09211 1056 ft 10 kts 302°
2026-04-26 11:47 44.21792 43.09127 1056 ft 10 kts 302°
2026-04-26 11:47 44.21838 43.09057 1056 ft 10 kts 343°
2026-04-26 11:47 44.21903 43.09102 1056 ft 11 kts 31°
2026-04-26 11:48 44.21973 43.09119 1056 ft 11 kts 345°
2026-04-26 11:48 44.22042 43.09076 1056 ft 11 kts 333°
2026-04-26 11:48 44.22109 43.09028 1057 ft 11 kts 332°
2026-04-26 11:48 44.22176 43.08979 1058 ft 11 kts 332°
2026-04-26 11:49 44.22243 43.08930 1058 ft 11 kts 332°
2026-04-26 11:49 44.22311 43.08881 1057 ft 12 kts 332°
2026-04-26 11:49 44.22384 43.08826 1057 ft 12 kts 328°
2026-04-26 11:49 44.22456 43.08752 1059 ft 18 kts 318°
2026-04-26 11:50 44.22546 43.08597 1058 ft 22 kts 303°
2026-04-26 11:50 44.22628 43.08422 1058 ft 22 kts 303°
2026-04-26 11:50 44.22712 43.08244 1054 ft 22 kts 303°
2026-04-26 11:50 44.22796 43.08063 1054 ft 22 kts 302°
2026-04-26 11:51 44.22880 43.07880 1055 ft 22 kts 302°
2026-04-26 11:51 44.22961 43.07699 1055 ft 22 kts 302°
2026-04-26 11:51 44.23043 43.07515 1057 ft 22 kts 302°
2026-04-26 11:51 44.23125 43.07331 1053 ft 22 kts 302°
2026-04-26 11:52 44.23207 43.07148 1051 ft 23 kts 302°
2026-04-26 11:52 44.23292 43.06958 1051 ft 23 kts 302°
2026-04-26 11:52 44.23377 43.06767 1052 ft 23 kts 302°
2026-04-26 11:52 44.23461 43.06592 1056 ft 21 kts 308°
2026-04-26 11:53 44.23550 43.06429 1055 ft 19 kts 304°
2026-04-26 11:53 44.23608 43.06307 1056 ft 15 kts 302°
2026-04-26 11:53 44.23597 43.06249 1055 ft 4 kts 163°
2026-04-26 11:54 44.23560 43.06363 1056 ft 0 kts 122°
2026-04-26 11:54 44.23535 43.06418 1055 ft 34 kts 122°
2026-04-26 11:54 44.23186 43.07179 1053 ft 151 kts 122°
2026-04-26 11:55 44.22440 43.08833 1345 ft 240 kts 122°
2026-04-26 11:55 44.21514 43.10849 3243 ft 237 kts 123°
2026-04-26 11:55 44.20650 43.12700 5399 ft 221 kts 122°
2026-04-26 11:55 44.19818 43.14581 6269 ft 240 kts 122°
2026-04-26 11:56 44.18876 43.16692 6674 ft 269 kts 123°
2026-04-26 11:56 44.17854 43.18946 7567 ft 281 kts 126°
2026-04-26 11:56 44.16789 43.21278 8563 ft 289 kts 126°
2026-04-26 11:56 44.15747 43.23658 9465 ft 296 kts 118°
2026-04-26 11:57 44.15313 43.26511 9969 ft 310 kts 88°
2026-04-26 11:57 44.15893 43.29431 9974 ft 319 kts 59°
2026-04-26 11:57 44.17351 43.31733 9993 ft 317 kts 33°
2026-04-26 11:57 44.19315 43.33006 9982 ft 308 kts
2026-04-26 11:58 44.21408 43.32993 9986 ft 297 kts 340°
2026-04-26 11:58 44.23217 43.31746 9999 ft 288 kts 317°
2026-04-26 11:58 44.24566 43.29734 9992 ft 281 kts 300°
2026-04-26 11:58 44.25626 43.27438 9990 ft 282 kts 298°
2026-04-26 11:59 44.26663 43.25150 9993 ft 283 kts 298°
2026-04-26 11:59 44.27739 43.22795 9989 ft 284 kts 298°
2026-04-26 11:59 44.28792 43.20509 9994 ft 284 kts 298°
2026-04-26 11:59 44.29864 43.18187 9992 ft 282 kts 297°
2026-04-26 12:00 44.30540 43.15710 9995 ft 269 kts 273°
2026-04-26 12:00 44.30455 43.13137 9993 ft 265 kts 256°
2026-04-26 12:00 44.29955 43.10661 9998 ft 265 kts 252°
2026-04-26 12:00 44.29415 43.08184 10000 ft 267 kts 252°
2026-04-26 12:01 44.28880 43.05702 10019 ft 266 kts 252°
2026-04-26 12:01 44.28354 43.03242 9993 ft 263 kts 252°
2026-04-26 12:01 44.27836 43.00804 10002 ft 262 kts 252°
2026-04-26 12:01 44.27316 42.98353 10000 ft 264 kts 252°
2026-04-26 12:02 44.26794 42.95901 10003 ft 264 kts 252°
2026-04-26 12:02 44.26270 42.93444 10003 ft 265 kts 252°
2026-04-26 12:02 44.25744 42.90978 10001 ft 265 kts 252°
2026-04-26 12:02 44.25224 42.88540 10006 ft 266 kts 252°
2026-04-26 12:03 44.24689 42.86036 9997 ft 266 kts 252°
2026-04-26 12:03 44.24169 42.83597 9992 ft 266 kts 252°
2026-04-26 12:03 44.23641 42.81124 9989 ft 266 kts 251°
2026-04-26 12:03 44.23113 42.78656 9985 ft 265 kts 251°
2026-04-26 12:04 44.22586 42.76197 9989 ft 265 kts 251°
2026-04-26 12:04 44.22058 42.73735 9982 ft 265 kts 251°
2026-04-26 12:04 44.21530 42.71281 9980 ft 265 kts 251°
2026-04-26 12:04 44.21002 42.68822 9978 ft 264 kts 251°
2026-04-26 12:05 44.20475 42.66373 9985 ft 264 kts 251°
2026-04-26 12:05 44.19944 42.63915 9983 ft 265 kts 251°
2026-04-26 12:05 44.19412 42.61455 9974 ft 265 kts 251°
2026-04-26 12:05 44.18960 42.58966 10108 ft 267 kts 258°
2026-04-26 12:06 44.18762 42.56398 11018 ft 268 kts 263°
2026-04-26 12:06 44.18621 42.53788 12077 ft 271 kts 264°
2026-04-26 12:06 44.18485 42.51151 13131 ft 275 kts 264°
2026-04-26 12:06 44.18343 42.48473 14134 ft 279 kts 265°
2026-04-26 12:07 44.18194 42.45764 15082 ft 283 kts 264°
2026-04-26 12:07 44.18037 42.43018 16025 ft 287 kts 264°
2026-04-26 12:07 44.17872 42.40220 16970 ft 292 kts 264°
2026-04-26 12:07 44.17702 42.37378 17906 ft 298 kts 264°
2026-04-26 12:08 44.17525 42.34471 18799 ft 302 kts 264°
2026-04-26 12:08 44.17348 42.31607 19829 ft 300 kts 264°
2026-04-26 12:08 44.17167 42.28698 20721 ft 304 kts 264°
2026-04-26 12:08 44.16981 42.25734 21540 ft 310 kts 264°
2026-04-26 12:09 44.16791 42.22719 22399 ft 315 kts 264°
2026-04-26 12:09 44.16596 42.19659 23303 ft 318 kts 263°
2026-04-26 12:09 44.16400 42.16574 24075 ft 322 kts 264°
2026-04-26 12:09 44.16199 42.13439 24818 ft 326 kts 264°
2026-04-26 12:10 44.15994 42.10250 25523 ft 332 kts 264°
2026-04-26 12:10 44.15786 42.07041 25939 ft 333 kts 264°
2026-04-26 12:10 44.15576 42.03801 25934 ft 338 kts 264°
2026-04-26 12:10 44.15363 42.00540 25937 ft 337 kts 264°
2026-04-26 12:11 44.15151 41.97295 25932 ft 335 kts 264°
2026-04-26 12:11 44.14935 41.94014 25955 ft 348 kts 264°
2026-04-26 12:11 44.14706 41.90565 25962 ft 367 kts 264°
2026-04-26 12:11 44.14468 41.86991 25955 ft 385 kts 264°
2026-04-26 12:12 44.14213 41.83181 25953 ft 403 kts 264°
2026-04-26 12:12 44.13947 41.79228 25958 ft 419 kts 264°
2026-04-26 12:12 44.13669 41.75106 25951 ft 434 kts 264°
2026-04-26 12:12 44.13481 41.72327 25946 ft 437 kts 264°
2026-04-26 12:13 44.13096 41.66646 25939 ft 441 kts 264°
2026-04-26 12:13 44.12807 41.62399 25936 ft 440 kts 264°
2026-04-26 12:13 44.12514 41.58151 25932 ft 440 kts 264°
2026-04-26 12:13 44.12222 41.53956 25918 ft 429 kts 263°
2026-04-26 12:14 44.11772 41.49915 25601 ft 418 kts 257°
2026-04-26 12:14 44.11054 41.46033 25050 ft 413 kts 253°
2026-04-26 12:14 44.10141 41.42310 24317 ft 412 kts 248°
2026-04-26 12:14 44.09014 41.38644 23613 ft 412 kts 247°
2026-04-26 12:15 44.07885 41.34997 22925 ft 409 kts 247°
2026-04-26 12:15 44.06758 41.31347 22311 ft 404 kts 248°
2026-04-26 12:15 44.05672 41.27815 21714 ft 399 kts 247°
2026-04-26 12:15 44.04587 41.24285 21097 ft 395 kts 248°
2026-04-26 12:16 44.03511 41.20778 20484 ft 393 kts 247°
2026-04-26 12:16 44.02443 41.17300 19881 ft 390 kts 247°
2026-04-26 12:16 44.01380 41.13844 19327 ft 386 kts 248°
2026-04-26 12:16 44.00330 41.10430 18776 ft 383 kts 247°
2026-04-26 12:17 43.99287 41.07043 18242 ft 380 kts 247°
2026-04-26 12:17 43.98250 41.03682 17646 ft 377 kts 247°
2026-04-26 12:17 43.97221 41.00351 17085 ft 373 kts 247°
2026-04-26 12:17 43.96202 40.97055 16570 ft 368 kts 246°
2026-04-26 12:18 43.95198 40.93812 16088 ft 363 kts 247°
2026-04-26 12:18 43.94207 40.90616 15549 ft 359 kts 246°
2026-04-26 12:18 43.93223 40.87445 14996 ft 357 kts 246°
2026-04-26 12:18 43.92253 40.84328 14390 ft 356 kts 246°
2026-04-26 12:19 43.91263 40.81144 13846 ft 353 kts 246°
2026-04-26 12:19 43.90306 40.78064 13347 ft 350 kts 246°
2026-04-26 12:19 43.89336 40.74955 12593 ft 353 kts 246°
2026-04-26 12:19 43.88360 40.71837 11992 ft 353 kts 245°
2026-04-26 12:20 43.87389 40.68747 11473 ft 348 kts 245°
2026-04-26 12:20 43.86412 40.65672 10882 ft 348 kts 244°
2026-04-26 12:20 43.85450 40.62658 10803 ft 335 kts 245°
2026-04-26 12:20 43.84503 40.59697 10803 ft 342 kts 244°
2026-04-26 12:21 43.83556 40.56719 10829 ft 333 kts 244°
2026-04-26 12:21 43.82646 40.53866 10796 ft 315 kts 244°
2026-04-26 12:21 43.81784 40.51173 10891 ft 296 kts 244°
2026-04-26 12:21 43.80972 40.48632 11460 ft 280 kts 245°
2026-04-26 12:22 43.80196 40.46212 11871 ft 271 kts 244°
2026-04-26 12:22 43.79426 40.43820 11939 ft 274 kts 244°
2026-04-26 12:22 43.78653 40.41420 11912 ft 270 kts 245°
2026-04-26 12:22 43.77898 40.39065 11941 ft 268 kts 244°
2026-04-26 12:23 43.77138 40.36700 11973 ft 270 kts 244°
2026-04-26 12:23 43.76371 40.34306 11925 ft 273 kts 244°
2026-04-26 12:23 43.75603 40.31930 11928 ft 268 kts 244°
2026-04-26 12:23 43.74849 40.29599 11940 ft 264 kts 244°
2026-04-26 12:24 43.74101 40.27281 11973 ft 265 kts 244°
2026-04-26 12:24 43.73341 40.24930 11960 ft 268 kts 244°
2026-04-26 12:24 43.72586 40.22595 11924 ft 269 kts 244°
2026-04-26 12:25 43.71084 40.17937 11935 ft 267 kts 244°
2026-04-26 12:25 43.70320 40.15588 11924 ft 268 kts 244°
2026-04-26 12:25 43.69555 40.13232 11927 ft 270 kts 244°
2026-04-26 12:25 43.68655 40.10963 11929 ft 279 kts 227°
2026-04-26 12:26 43.66931 40.09452 11960 ft 316 kts 199°
2026-04-26 12:26 43.64752 40.08490 11956 ft 343 kts 203°
2026-04-26 12:26 43.62540 40.07098 11933 ft 349 kts 207°
2026-04-26 12:26 43.60361 40.05629 11931 ft 348 kts 207°
2026-04-26 12:27 43.58222 40.04223 11924 ft 333 kts 206°
2026-04-26 12:27 43.56163 40.02911 11915 ft 317 kts 206°
2026-04-26 12:27 43.54856 40.02092 11929 ft 307 kts 206°
2026-04-26 12:27 43.52330 40.00514 11915 ft 288 kts 206°
2026-04-26 12:28 43.50545 39.99392 11920 ft 275 kts 206°
2026-04-26 12:28 43.49402 39.98680 11910 ft 268 kts 206°